RH
11 19 25 25 29 32 27 22 17 14 16 18 20 19 9 8 14 20 18 40 47 68 51 45 88 96 93
11 11 15 13 20 31 33 30 23 19 30 33 37 48 36 27 88 100 73 49 100 65 69 96 97 97 97
9 10 13 10 17 29 36 36 32 23 38 53 65 75 67 75 100 97 100 99 100 100 99 82 98 96 97
11 9 9 11 13 27 38 43 44 27 51 71 97 100 91 92 100 99 98 99 98 98 81 92 83 98 97
14 13 13 13 14 31 39 49 56 33 57 79 100 100 82 96 100 96 81 98 95 78 94 85 60 86 92
14 19 18 18 18 20 41 46 67 50 41 96 100 99 88 100 99 98 70 89 100 100 95 98 84 60 63
17 20 23 22 21 17 26 46 58 71 34 66 86 85 98 100 100 100 100 100 100 98 99 98 100 95 88
11 14 18 26 26 22 18 40 47 71 52 40 50 52 91 98 99 100 100 98 99 100 100 100 90 92 92
36 16 14 18 27 29 25 19 46 48 77 39 39 26 54 71 65 82 98 97 99 100 100 100 100 100 100
61 88 60 27 31 36 34 30 23 50 52 74 49 33 38 38 43 50 57 61 86 95 85 68 68 69 68
91 71 90 96 39 55 54 36 34 25 55 49 58 79 43 34 46 51 49 54 59 58 59 58 55 50 58
100 100 100 99 90 73 74 52 42 36 24 54 54 42 68 72 46 41 39 48 61 70 71 75 84 91 86
100 100 100 100 98 94 94 94 62 51 50 29 40 61 42 60 80 67 60 53 47 44 42 42 44 44 45
100 100 100 100 99 100 99 97 93 72 70 63 40 34 61 54 40 47 71 79 78 81 88 86 82 75 66
100 100 100 100 100 100 100 100 99 95 94 81 75 58 32 42 70 65 43 39 52 89 98 99 95 84 90
100 100 100 100 100 100 100 100 100 99 100 99 93 84 84 52 32 50 78 73 61 49 79 95 94 99 94
83 99 100 100 100 100 100 100 100 100 98 100 98 99 98 96 92 52 33 53 78 77 65 45 52 66 83
Wind_Speed
31 30 30 28 32 36 40 46 51 53 53 55 60 63 72 81 82 82 81 75 74 76 70 66 64 55 58
32 33 35 35 33 34 40 45 50 51 49 51 56 54 58 63 67 72 73 72 65 70 68 63 49 65 67
28 31 33 37 36 37 38 42 47 47 47 48 49 43 44 66 56 65 61 60 65 56 64 82 72 66 53
29 29 31 35 35 37 38 40 43 44 42 43 45 35 32 62 41 50 51 63 70 73 84 67 80 80 78
32 31 32 34 35 36 37 41 39 40 36 37 30 26 35 28 30 39 42 55 62 63 65 69 72 65 63
39 36 35 34 35 35 35 39 41 37 34 31 17 17 17 17 18 33 36 37 42 55 55 58 61 68 71
44 42 38 37 37 36 35 34 39 33 27 25 17 18 26 13 15 18 28 35 41 44 46 48 51 55 58
46 45 45 41 38 37 35 34 33 34 25 20 18 31 24 17 18 18 22 30 35 40 44 47 47 49 49
47 47 45 45 41 39 37 33 33 32 26 19 20 31 41 36 32 28 29 30 29 39 41 44 46 48 49
56 60 52 48 42 42 40 36 32 31 29 23 21 25 32 46 46 44 40 39 40 38 41 42 45 48 50
64 61 63 58 51 42 43 38 35 32 30 27 22 22 24 31 35 40 45 44 42 44 47 49 51 54 53
60 62 58 50 49 52 48 42 37 34 31 31 27 24 21 24 28 34 38 39 40 41 43 45 45 48 51
51 54 56 53 50 55 51 50 41 35 34 31 32 28 25 21 23 28 29 30 32 35 39 42 44 45 46
44 43 51 55 59 56 50 48 48 43 38 35 32 34 30 27 25 23 23 29 34 36 36 37 37 38 40
47 46 42 45 51 53 53 57 53 51 46 38 37 33 34 33 30 27 26 24 24 27 28 27 32 38 39
46 48 48 46 43 41 43 49 47 49 46 43 42 40 35 34 34 33 31 30 28 26 25 25 28 20 26
50 45 43 48 45 41 38 43 42 46 47 48 50 45 42 39 37 34 34 34 34 34 32 31 32 28 29
Wind_Direction
293 292 296 300 304 297 291 291 295 294 289 291 288 279 256 245 241 243 240 239 239 241 243 250 244 234 243
291 293 296 298 302 307 299 299 300 295 296 297 302 292 252 240 226 235 241 237 232 236 224 234 241 240 241
294 293 296 300 304 307 308 304 304 297 300 303 301 298 254 221 218 226 226 226 224 227 237 231 241 237 234
296 300 298 299 305 308 312 310 310 307 307 305 301 291 269 234 220 216 224 227 227 223 234 235 237 247 251
287 291 296 300 303 307 313 316 314 315 312 317 308 289 278 200 227 226 244 239 232 236 239 236 241 244 248
284 286 291 297 302 304 307 317 317 320 315 323 316 291 252 251 253 224 230 228 229 233 239 240 243 244 251
280 282 286 289 295 301 304 310 318 314 316 312 292 255 218 259 244 229 229 232 232 231 236 240 244 246 248
278 280 283 285 289 295 299 303 310 316 313 298 283 253 249 254 235 234 228 231 236 239 241 242 244 248 249
274 279 280 282 283 286 293 296 299 308 309 296 272 245 239 254 263 255 242 232 223 225 234 240 243 246 248
272 269 270 277 279 278 285 291 291 294 304 303 282 260 248 248 254 257 258 253 253 246 248 255 253 254 254
266 267 268 269 268 274 273 283 285 285 289 296 298 279 267 255 254 253 257 259 257 253 253 257 259 255 252
270 270 269 263 269 264 265 272 279 278 279 282 288 292 289 267 259 257 257 256 256 259 261 260 259 257 256
267 265 259 262 257 267 263 258 268 273 275 276 279 280 283 285 271 260 258 258 258 257 255 254 255 257 257
278 269 261 252 263 269 259 257 256 264 268 273 273 274 274 273 273 274 275 268 260 257 261 260 257 255 254
268 270 268 268 266 259 256 256 256 257 260 263 268 270 270 270 270 269 268 272 276 271 266 263 263 256 253
267 257 259 262 267 264 261 255 253 250 253 254 257 260 266 268 268 267 268 266 266 266 264 266 280 276 255
273 269 267 260 256 260 257 259 258 248 245 252 255 257 258 262 265 265 263 263 264 264 263 264 265 269 270